[[{"header":{"parameterUnit":"m.s-1","parameterCategory":1,"la1":30.2991,"la2":30.254,"lo1":-89.0895,"lo2":-89.0444,"dy":0.0017,"dx":0.0017,"nx":28,"ny":28,"refTime":"2025-06-11T09:00:00:Z","depth":0,"parameterNumber":2,"parameterNumberName":"U-component_of_WINDS"},"data":[0,0,0,0,0,0,0,0,0,0,0,0,0,0,0,0,0,0,0,0,0,0,0,0,0,0,0,0,0,0,0,0,0,0,0,0,0,0,0,0,0,0,0,0,0,0,0,0,0,0,0,0,0,0,0,0,0,0,-1.9301,-1.93,0,-1.9238,-1.9237,-1.9236,-1.9177,-1.9176,-1.9175,-1.9175,-1.911,-1.9109,-1.9108,0,0,0,0,0,0,0,0,0,0,0,0,0,-1.9372,-1.9371,-1.9301,-1.93,-1.9299,-1.9238,-1.9237,-1.9236,-1.9177,-1.9176,-1.9175,-1.9174,-1.911,-1.9109,-1.9108,0,0,0,0,0,0,0,0,0,0,0,0,0,-1.9328,-1.9371,-1.9301,-1.9263,-1.9258,-1.9238,-1.9237,-1.9236,-1.9177,-1.9176,-1.9175,-1.9174,-1.9111,-1.9109,-1.9107,-1.912,0,0,-1.9103,-1.9102,0,0,0,0,0,0,0,0,-1.9331,-1.9326,-1.9269,-1.9265,-1.9261,-1.9214,-1.9238,-1.9197,-1.9177,-1.9208,-1.9175,-1.9173,-1.9145,-1.9141,-1.9131,-1.9117,-1.9114,-1.9103,-1.9102,-1.9101,-1.9101,0,0,0,0,0,0,0,-1.9334,-1.9328,-1.9276,-1.9268,-1.9263,-1.9249,-1.9241,-1.923,-1.9184,-1.9205,-1.9201,-1.9194,-1.9143,-1.9133,-1.913,-1.9114,-1.9103,-1.9101,-1.91,-1.91,-1.9108,-1.9109,0,0,0,0,0,0,-1.9343,-1.9331,-1.9278,-1.9274,-1.9294,-1.9248,-1.924,-1.923,-1.9184,-1.9176,-1.9195,-1.9192,-1.9136,-1.9131,-1.9127,-1.9139,-1.9101,-1.91,-1.9099,-1.9107,-1.9108,-1.911,0,0,0,0,0,0,-1.9344,-1.9339,-1.9281,-1.9301,-1.9293,-1.9248,-1.9238,-1.9229,-1.922,-1.9176,-1.9168,-1.9194,-1.9135,-1.9129,-1.9123,-1.9136,-1.9099,-1.9097,-1.9106,-1.9108,-1.9109,-1.9164,0,0,0,0,0,0,-1.9347,-1.934,-1.9343,-1.9302,-1.9292,-1.9277,-1.9238,-1.9229,-1.9217,-1.9212,-1.9172,-1.9165,-1.9134,-1.9125,-1.9121,-1.9133,-1.9096,-1.9104,-1.9107,-1.9109,-1.9161,-1.9168,-1.9173,0,0,0,0,0,-1.9349,-1.9361,-1.9344,-1.9338,-1.9296,-1.9278,-1.9272,-1.9236,-1.9218,-1.9222,-1.9195,-1.9166,-1.9136,-1.9125,-1.912,-1.9132,-1.9103,-1.9106,-1.9108,-1.9158,-1.9166,-1.9173,0,0,0,0,0,0,-1.9405,-1.9355,-1.9335,-1.9334,-1.9311,-1.9268,-1.9271,-1.9246,-1.9227,-1.9223,-1.918,-1.9172,-1.917,-1.9151,-1.914,-1.9143,-1.9116,-1.9117,-1.9155,-1.9163,-1.9169,-1.9173,-1.9095,0,0,0,0,0,-1.9417,-1.9406,-1.9363,-1.9366,-1.9356,-1.9316,-1.9307,-1.9282,-1.9256,-1.9246,-1.9217,-1.9194,-1.9179,-1.917,-1.9154,-1.9159,-1.9149,-1.9164,-1.9171,-1.9176,-1.9178,-1.918,-1.9186,-1.9118,-1.9118,-1.9118,0,0,-1.9442,-1.9413,-1.9409,-1.9377,-1.9356,-1.9346,-1.9308,-1.9299,-1.9292,-1.9244,-1.9236,-1.9215,-1.9186,-1.9186,-1.9184,-1.9169,-1.9195,-1.9179,-1.9184,-1.9182,-1.9183,-1.9189,-1.9195,-1.912,-1.912,-1.9119,0,0,-1.9481,-1.9459,-1.9459,-1.9439,-1.9408,-1.9382,-1.9383,-1.9344,-1.9328,-1.932,-1.9285,-1.9276,-1.9251,-1.9232,-1.9219,-1.9255,-1.9228,-1.9251,-1.9283,-1.9285,-1.9291,-1.9295,-1.9308,-1.9313,-1.9253,-1.9253,-1.9253,0,-1.9516,-1.9499,-1.9462,-1.9456,-1.9443,-1.9401,-1.9401,-1.9384,-1.935,-1.9342,-1.9327,-1.9296,-1.9273,-1.9268,-1.9277,-1.9268,-1.9267,-1.9254,-1.9293,-1.9297,-1.9301,-1.9312,-1.9317,-1.9256,-1.9256,-1.9256,-1.9255,0,-1.9543,-1.9533,-1.9537,-1.9505,-1.9493,-1.9491,-1.9454,-1.9446,-1.9423,-1.9399,-1.9392,-1.9364,-1.9342,-1.9339,-1.9316,-1.9331,-1.9323,-1.9301,-1.9272,-1.9311,-1.9321,-1.9325,-1.926,-1.9259,-1.9259,-1.9258,0,0,-1.9614,-1.9564,-1.9566,-1.9551,-1.9515,-1.9507,-1.9503,-1.9482,-1.9477,-1.9455,-1.9451,-1.9432,-1.9412,-1.9398,-1.9372,-1.9375,-1.9406,-1.9352,-1.9351,-1.9363,-1.9421,-1.9438,-1.9444,-1.9388,-1.9389,-1.939,-1.9424,0,-1.9647,-1.9637,-1.9605,-1.9604,-1.9595,-1.9556,-1.9553,-1.9531,-1.9509,-1.9498,-1.9474,-1.9461,-1.9436,-1.9427,-1.9428,-1.9402,-1.9417,-1.9399,-1.9384,-1.9384,-1.9392,-1.9449,-1.9466,-1.9499,-1.9428,-1.9428,-1.9429,0,-1.9684,-1.9666,-1.9665,-1.9631,-1.9626,-1.9623,-1.9602,-1.9592,-1.9567,-1.9551,-1.9537,-1.9509,-1.9504,-1.9479,-1.9471,-1.946,-1.9452,-1.9439,-1.9439,-1.9436,-1.9408,-1.9446,-1.9509,-1.9514,-1.9435,-1.9434,-1.9434,0,-1.9736,-1.9711,-1.9707,-1.9697,-1.9657,-1.9656,-1.964,-1.9614,-1.9604,-1.9586,-1.9579,-1.9561,-1.9551,-1.9538,-1.9506,-1.9491,-1.9502,-1.9474,-1.9489,-1.949,-1.9492,-1.9492,-1.9554,-1.9489,-1.9489,-1.9489,-1.9488,0,-1.9776,-1.9777,-1.973,-1.9728,-1.9728,-1.9692,-1.9693,-1.9673,-1.9651,-1.9645,-1.9611,-1.9605,-1.9565,-1.9555,-1.9531,-1.9529,-1.9524,-1.9512,-1.9505,-1.9514,-1.9516,-1.9508,-1.9504,-1.949,-1.949,-1.9489,-1.9489,0,-1.9833,-1.9802,-1.9795,-1.9759,-1.975,-1.9752,-1.972,-1.9717,-1.9694,-1.9687,-1.9683,-1.9647,-1.9635,-1.9602,-1.9581,-1.9565,-1.9569,-1.9557,-1.9578,-1.9573,-1.959,-1.9589,-1.9648,-1.9654,-1.9586,-1.9586,-1.9587,0,-1.986,-1.986,-1.9824,-1.9817,-1.9802,-1.9792,-1.9782,-1.9747,-1.9738,-1.9711,-1.9712,-1.9696,-1.9682,-1.9664,-1.9636,-1.962,-1.9607,-1.9629,-1.9605,-1.9614,-1.9607,-1.9608,-1.9608,-1.9634,-1.9635,-1.9636,-1.9637,0,-1.9912,-1.9897,-1.9883,-1.9865,-1.9854,-1.9839,-1.9821,-1.9818,-1.9778,-1.9771,-1.9757,-1.9747,-1.9726,-1.9711,-1.9692,-1.9675,-1.965,-1.9645,-1.9648,-1.9656,-1.9668,-1.9662,-1.9592,-1.9643,-1.9643,-1.9642,-1.9642,-1.9642,-1.9954,-1.9952,-1.9927,-1.9914,-1.9897,-1.9882,-1.9878,-1.9855,-1.9843,-1.9823,-1.9804,-1.9793,-1.977,-1.9741,-1.9727,-1.9718,-1.9705,-1.9708,-1.9709,-1.9711,-1.9715,-1.9671,-1.9715,-1.9714,-1.9714,-1.9714,-1.9714,0,-2.0004,-1.9986,-1.9974,-1.9951,-1.9941,-1.9919,-1.9899,-1.9892,-1.9883,-1.9864,-1.9851,-1.9837,-1.9823,-1.9795,-1.9779,-1.9778,-1.9766,-1.9775,-1.9774,-1.9771,-1.9728,-1.9727,-1.9785,-1.9785,-1.9785,-1.9785,-1.9785,-1.9785,-2.0028,-2.0025,-2.0007,-1.9996,-1.9978,-1.9967,-1.9958,-1.9944,-1.9928,-1.9914,-1.9903,-1.9885,-1.9863,-1.9845,-1.9832,-1.9824,-1.982,-1.9833,-1.9821,-1.9781,-1.9774,-1.9768,-1.9767,-1.9832,-1.9832,-1.9865,-1.9866,-1.9866]},{"header":{"parameterUnit":"m.s-1","parameterCategory":1,"la1":30.2991,"la2":30.254,"lo1":-89.0895,"lo2":-89.0444,"dy":0.0017,"dx":0.0017,"nx":28,"ny":28,"refTime":"2025-06-11T09:00:00:Z","depth":0,"parameterNumber":3,"parameterNumberName":"V-component_of_WINDS"},"data":[0,0,0,0,0,0,0,0,0,0,0,0,0,0,0,0,0,0,0,0,0,0,0,0,0,0,0,0,0,0,0,0,0,0,0,0,0,0,0,0,0,0,0,0,0,0,0,0,0,0,0,0,0,0,0,0,0,0,4.1284,4.1284,0,4.128,4.128,4.1279,4.1242,4.1241,4.124,4.1239,4.1235,4.1236,4.1236,0,0,0,0,0,0,0,0,0,0,0,0,0,4.1259,4.126,4.1284,4.1284,4.1284,4.128,4.128,4.1279,4.1242,4.1241,4.124,4.1239,4.1235,4.1236,4.1237,0,0,0,0,0,0,0,0,0,0,0,0,0,4.1264,4.126,4.1284,4.1265,4.1263,4.128,4.128,4.1279,4.1242,4.1241,4.124,4.1238,4.1234,4.1236,4.1237,4.1271,0,0,4.124,4.1241,0,0,0,0,0,0,0,0,4.1264,4.1265,4.1268,4.1266,4.1264,4.126,4.1269,4.1277,4.1243,4.125,4.1239,4.1238,4.1244,4.1245,4.1247,4.1271,4.1271,4.124,4.1241,4.1241,4.1242,0,0,0,0,0,0,0,4.1263,4.1265,4.1282,4.1268,4.1266,4.1256,4.1255,4.127,4.1255,4.1249,4.1247,4.1247,4.1243,4.1246,4.1246,4.1271,4.124,4.1241,4.1242,4.1242,4.1323,4.1324,0,0,0,0,0,0,4.1266,4.1265,4.1282,4.1282,4.126,4.1258,4.1257,4.1263,4.1255,4.1252,4.1248,4.1245,4.1245,4.1245,4.1246,4.1286,4.1241,4.1242,4.1243,4.1321,4.1323,4.1324,0,0,0,0,0,0,4.1265,4.1268,4.1282,4.1273,4.1274,4.1259,4.1267,4.1263,4.1266,4.1254,4.1251,4.1254,4.1244,4.1245,4.1265,4.1285,4.1243,4.1244,4.1319,4.1322,4.1324,4.1366,0,0,0,0,0,0,4.1265,4.1268,4.1281,4.1273,4.1274,4.1302,4.1268,4.1264,4.1268,4.1264,4.1258,4.1256,4.1243,4.1264,4.1266,4.1286,4.1245,4.1318,4.132,4.1323,4.1362,4.1369,4.1375,0,0,0,0,0,4.1264,4.1293,4.1282,4.1284,4.1291,4.1303,4.1304,4.1288,4.127,4.1283,4.1275,4.1256,4.1283,4.1266,4.1269,4.1289,4.1316,4.132,4.1323,4.136,4.1368,4.1374,0,0,0,0,0,0,4.1304,4.1292,4.1279,4.1307,4.1306,4.1297,4.1313,4.1297,4.1302,4.1298,4.1278,4.1277,4.13,4.1297,4.1279,4.1322,4.1296,4.13,4.1323,4.1331,4.1337,4.1337,4.1246,0,0,0,0,0,4.1317,4.1328,4.1316,4.1342,4.1342,4.1328,4.1332,4.132,4.1319,4.1318,4.1312,4.1311,4.1319,4.1325,4.1331,4.1362,4.1359,4.1377,4.1383,4.1388,4.1392,4.1406,4.1414,4.1335,4.1335,4.1335,0,0,4.1342,4.1336,4.1345,4.135,4.1348,4.1359,4.1328,4.1342,4.135,4.132,4.1339,4.1334,4.1332,4.1357,4.1368,4.1355,4.1413,4.1392,4.1396,4.1397,4.141,4.1418,4.1424,4.1337,4.1337,4.1337,0,0,4.1393,4.1391,4.1411,4.141,4.1407,4.1397,4.1402,4.1394,4.139,4.1409,4.1386,4.1396,4.141,4.1409,4.1411,4.1461,4.1443,4.1464,4.1495,4.151,4.1516,4.1522,4.1539,4.1545,4.1467,4.1467,4.1467,0,4.1425,4.1442,4.1424,4.1439,4.1441,4.1415,4.1435,4.1434,4.1434,4.1436,4.1421,4.1438,4.1435,4.1459,4.1471,4.1474,4.1478,4.1464,4.1517,4.1522,4.1527,4.1543,4.1549,4.147,4.1469,4.1469,4.1469,0,4.148,4.1492,4.1509,4.1509,4.1513,4.1531,4.1515,4.1522,4.1509,4.15,4.1519,4.1514,4.1519,4.1524,4.1511,4.1546,4.1538,4.152,4.1494,4.1537,4.1552,4.1558,4.1473,4.1472,4.1472,4.1471,0,0,4.1558,4.1547,4.1553,4.1553,4.1547,4.1556,4.1572,4.1576,4.1582,4.1582,4.1595,4.1607,4.159,4.1592,4.1579,4.1592,4.1631,4.1573,4.1573,4.1583,4.1668,4.1681,4.1689,4.162,4.1621,4.1622,4.1668,0,4.1607,4.1634,4.1618,4.1647,4.1657,4.1631,4.1645,4.1643,4.1635,4.1642,4.1634,4.1643,4.162,4.1621,4.1633,4.1624,4.1648,4.1621,4.1631,4.1631,4.1632,4.1697,4.171,4.1754,4.1674,4.1675,4.1676,0,4.1669,4.1671,4.1701,4.1692,4.1696,4.1709,4.1711,4.1718,4.1715,4.1708,4.171,4.1693,4.1708,4.1682,4.1702,4.1684,4.1687,4.1683,4.1684,4.1684,4.1656,4.1698,4.1768,4.1775,4.1685,4.1684,4.1683,0,4.1722,4.1732,4.1751,4.1751,4.1742,4.1751,4.1748,4.1743,4.1747,4.1748,4.175,4.1754,4.1756,4.1759,4.1744,4.1727,4.1765,4.1738,4.176,4.176,4.1769,4.1768,4.184,4.1772,4.1772,4.1771,4.1771,0,4.1778,4.1797,4.1775,4.1787,4.1807,4.1788,4.1808,4.1802,4.1798,4.1808,4.1786,4.1795,4.1775,4.1782,4.1771,4.1788,4.1789,4.1784,4.1781,4.1786,4.1786,4.1787,4.1784,4.1773,4.1773,4.1772,4.1772,0,4.1841,4.1827,4.1845,4.1835,4.1832,4.1848,4.1838,4.1848,4.1839,4.1851,4.1853,4.1838,4.1845,4.183,4.1836,4.1828,4.1853,4.1845,4.1854,4.1851,4.1873,4.1871,4.1948,4.1956,4.1883,4.1884,4.1884,0,4.1878,4.1892,4.1882,4.1887,4.1884,4.1892,4.1895,4.1877,4.1881,4.1877,4.1888,4.1893,4.1896,4.1909,4.1899,4.1903,4.1895,4.1921,4.1895,4.1899,4.1894,4.1893,4.1894,4.1926,4.1927,4.1928,4.1929,0,4.1945,4.1937,4.1942,4.1944,4.1948,4.1949,4.1948,4.1953,4.1933,4.1939,4.1946,4.1949,4.1954,4.1959,4.196,4.1957,4.1939,4.1937,4.1942,4.1947,4.1952,4.1949,4.1868,4.1935,4.1935,4.1934,4.1934,4.1934,4.1995,4.2006,4.2,4.2006,4.2004,4.2003,4.2012,4.2003,4.2009,4.2011,4.2,4.2009,4.2004,4.2004,4.2002,4.2009,4.1997,4.2004,4.2006,4.2008,4.2011,4.1951,4.2009,4.2009,4.2009,4.2009,4.2008,0,4.206,4.2055,4.2061,4.206,4.2065,4.2048,4.2046,4.2051,4.2059,4.2056,4.2059,4.2067,4.2072,4.2062,4.2065,4.2072,4.2064,4.2074,4.2073,4.2072,4.2022,4.2017,4.208,4.208,4.208,4.208,4.208,4.208,4.2095,4.2112,4.2103,4.2118,4.2112,4.2121,4.2121,4.2121,4.2118,4.2127,4.2131,4.2124,4.2118,4.212,4.2124,4.212,4.2122,4.2135,4.2129,4.2082,4.2075,4.2069,4.2064,4.2135,4.2135,4.2177,4.2178,4.2178]}]]